Darstellungsparameter: Aktuell verwendete Einstellungen:
Skalierung der Graphiken ... ?
xyx+y,   Skalierungsfaktor:      Skalierung: Modus: x, Faktor: 1
Darstellungszeitraum ... ?
Vom - - bis: - -   Zeitraum: 09.03.2021 - 09.03.2021
Min/Max/Avg-Anzeige ... ?
Zeige MMA aktuell
Zeige MMA Monat
Zeige MMA alles
Zeige --A aktuell
Zeige --A Monat
Zeige --A alles
Keine MMA-Anzeige
MMA:
Minimum Maximum Average (ber die Originaldaten)
MMA-Basis: 14.04.2020 - 16.05.2020
Quicknavigation für Darstellung... ?
Tage:      1T, 2T, 3T, 5T -1T -2T -3T -5T +1T +2T +3T +5T
Wochen: 1W, 2W, 3W -1W -2W -3W +1W +2W +3W
Monate: 1M, 3M, 6M -1M -3M -6M +1M +3M +6M
Jahre:    1J, 3J, 5J, 10J -1J -3J -5J -10J +1J +3J +5J +10J
Nutze für die Darstellung ... ?
Originaldaten oder Mittelwerte auf ...
Stundenbasis Tagesbasis Wochenbasis
Monatsbasis Jahresbasis      Datenbasis: Original-Daten
Darstellen als:
Statistik (Auto) Statistik J:M      Darstellung:
Zur Graphik,    zurück zur Übersicht aller Sensoren.
 
Tabellarische Datenbersicht: ?
 
Sensor: Nr:Datum:Temp:Abs-Feuchte:Windchill:Wind:
Aussen-T/F 1 09-03-2021 00:00:00 0.3 C 4.65 g/m*3 0.3 C 0 km/h
2 09-03-2021 00:05:00 0.3 C 4.65 g/m*3 0.3 C 0 km/h
3 09-03-2021 00:10:00 0.3 C 4.65 g/m*3 0.3 C 0 km/h
4 09-03-2021 00:15:00 0.3 C 4.65 g/m*3 0.3 C 0 km/h
5 09-03-2021 00:20:00 0.3 C 4.65 g/m*3 0.3 C 0 km/h
6 09-03-2021 00:25:00 0.3 C 4.65 g/m*3 0.3 C 0 km/h
7 09-03-2021 00:30:00 0.3 C 4.65 g/m*3 0.3 C 0 km/h
8 09-03-2021 00:35:00 0.4 C 4.68 g/m*3 0.4 C 0 km/h
9 09-03-2021 00:40:00 0.4 C 4.68 g/m*3 0.4 C 0 km/h
10 09-03-2021 00:45:00 0.4 C 4.68 g/m*3 0.4 C 0 km/h
11 09-03-2021 00:50:00 0.4 C 4.68 g/m*3 0.4 C 0 km/h
12 09-03-2021 00:55:00 0.4 C 4.68 g/m*3 0.4 C 0 km/h
13 09-03-2021 01:00:00 0.4 C 4.68 g/m*3 0.4 C 1.6 km/h
14 09-03-2021 01:05:00 0.5 C 4.71 g/m*3 0.5 C 0 km/h
15 09-03-2021 01:10:00 0.6 C 4.8 g/m*3 0.6 C 0 km/h
16 09-03-2021 01:15:00 0.6 C 4.75 g/m*3 0.6 C 0 km/h
17 09-03-2021 01:20:00 0.5 C 4.71 g/m*3 0.5 C 0 km/h
18 09-03-2021 01:25:00 0.5 C 4.71 g/m*3 0.5 C 0 km/h
19 09-03-2021 01:30:00 0.6 C 4.75 g/m*3 0.6 C 1.6 km/h
20 09-03-2021 01:35:00 0.6 C 4.75 g/m*3 0.6 C 0 km/h
21 09-03-2021 01:40:00 0.6 C 4.75 g/m*3 0.6 C 0 km/h
22 09-03-2021 01:45:00 0.5 C 4.71 g/m*3 0.5 C 0 km/h
23 09-03-2021 01:50:00 0.5 C 4.71 g/m*3 0.5 C 0 km/h
24 09-03-2021 01:55:00 0.6 C 4.8 g/m*3 0.6 C 0 km/h
25 09-03-2021 02:00:00 0.6 C 4.75 g/m*3 0.6 C 0 km/h
Sensor: Nr:Datum:Temp:Abs-Feuchte:Windchill:Wind:
Aussen-T/F 26 09-03-2021 02:05:00 0.6 C 4.8 g/m*3 0.6 C 0 km/h
27 09-03-2021 02:10:00 0.6 C 4.8 g/m*3 0.6 C 0 km/h
28 09-03-2021 02:15:00 0.6 C 4.8 g/m*3 0.6 C 0 km/h
29 09-03-2021 02:20:00 0.6 C 4.75 g/m*3 0.6 C 0 km/h
30 09-03-2021 02:25:00 0.5 C 4.71 g/m*3 0.5 C 0 km/h
31 09-03-2021 02:30:00 0.5 C 4.71 g/m*3 0.5 C 0 km/h
32 09-03-2021 02:35:00 0.5 C 4.71 g/m*3 0.5 C 0 km/h
33 09-03-2021 02:40:00 0.4 C 4.68 g/m*3 0.4 C 0 km/h
34 09-03-2021 02:45:00 0.4 C 4.68 g/m*3 0.4 C 0 km/h
35 09-03-2021 02:50:00 0.4 C 4.68 g/m*3 0.4 C 0 km/h
36 09-03-2021 02:55:00 0.3 C 4.65 g/m*3 0.3 C 0 km/h
37 09-03-2021 03:00:00 0.3 C 4.65 g/m*3 0.3 C 0 km/h
38 09-03-2021 03:05:00 0.3 C 4.65 g/m*3 0.3 C 0 km/h
39 09-03-2021 03:10:00 0.2 C 4.62 g/m*3 0.2 C 0 km/h
40 09-03-2021 03:15:00 0.2 C 4.62 g/m*3 0.2 C 0 km/h
41 09-03-2021 03:20:00 0.2 C 4.62 g/m*3 0.2 C 0 km/h
42 09-03-2021 03:25:00 0.2 C 4.62 g/m*3 0.2 C 0 km/h
43 09-03-2021 03:30:00 0.2 C 4.62 g/m*3 0.2 C 0 km/h
44 09-03-2021 03:35:00 0.2 C 4.62 g/m*3 0.2 C 0 km/h
45 09-03-2021 03:40:00 0.2 C 4.62 g/m*3 0.2 C 0 km/h
46 09-03-2021 03:45:00 0.2 C 4.62 g/m*3 0.2 C 0 km/h
47 09-03-2021 03:50:00 0.2 C 4.62 g/m*3 0.2 C 0 km/h
48 09-03-2021 03:55:00 0.2 C 4.62 g/m*3 0.2 C 0 km/h
49 09-03-2021 04:00:00 0.2 C 4.62 g/m*3 0.2 C 0 km/h
50 09-03-2021 04:05:00 0.1 C 4.59 g/m*3 0.1 C 0 km/h
Sensor: Nr:Datum:Temp:Abs-Feuchte:Windchill:Wind:
Aussen-T/F 51 09-03-2021 04:10:00 0.1 C 4.63 g/m*3 0.1 C 0 km/h
52 09-03-2021 04:15:00 0.2 C 4.67 g/m*3 0.2 C 0 km/h
53 09-03-2021 04:20:00 0.2 C 4.67 g/m*3 0.2 C 0 km/h
54 09-03-2021 04:25:00 0.2 C 4.67 g/m*3 0.2 C 0 km/h
55 09-03-2021 04:30:00 0.2 C 4.67 g/m*3 0.2 C 0 km/h
56 09-03-2021 04:35:00 0.2 C 4.67 g/m*3 0.2 C 0 km/h
57 09-03-2021 04:40:00 0.2 C 4.67 g/m*3 0.2 C 0 km/h
58 09-03-2021 04:45:00 0.1 C 4.63 g/m*3 0.1 C 0 km/h
59 09-03-2021 04:50:00 0.1 C 4.63 g/m*3 0.1 C 0 km/h
60 09-03-2021 04:55:00 0.1 C 4.63 g/m*3 0.1 C 0 km/h
61 09-03-2021 05:00:00 0.1 C 4.63 g/m*3 0.1 C 0 km/h
62 09-03-2021 05:05:00 0.1 C 4.63 g/m*3 0.1 C 0 km/h
63 09-03-2021 05:10:00 0.1 C 4.63 g/m*3 0.1 C 0 km/h
64 09-03-2021 05:15:00 0.1 C 4.63 g/m*3 0.1 C 0 km/h
65 09-03-2021 05:20:00 0.1 C 4.63 g/m*3 0.1 C 0 km/h
66 09-03-2021 05:25:00 0.1 C 4.63 g/m*3 0.1 C 0 km/h
67 09-03-2021 05:30:00 0.1 C 4.63 g/m*3 0.1 C 0 km/h
68 09-03-2021 05:35:00 0.1 C 4.63 g/m*3 0.1 C 0 km/h
69 09-03-2021 05:40:00 0.1 C 4.63 g/m*3 0.1 C 3.2 km/h
70 09-03-2021 05:45:00 0.1 C 4.63 g/m*3 0.1 C 3.2 km/h
71 09-03-2021 05:50:00 0.1 C 4.63 g/m*3 0.1 C 0 km/h
72 09-03-2021 05:55:00 0.1 C 4.63 g/m*3 0.1 C 0 km/h
73 09-03-2021 06:00:00 0.1 C 4.63 g/m*3 0.1 C 0 km/h
74 09-03-2021 06:05:00 0.1 C 4.63 g/m*3 0.1 C 0 km/h
75 09-03-2021 06:10:00 0.1 C 4.63 g/m*3 0.1 C 0 km/h
Sensor: Nr:Datum:Temp:Abs-Feuchte:Windchill:Wind:
Aussen-T/F 76 09-03-2021 06:15:00 0.2 C 4.67 g/m*3 0.2 C 0 km/h
77 09-03-2021 06:20:00 0.2 C 4.67 g/m*3 0.2 C 0 km/h
78 09-03-2021 06:25:00 0.2 C 4.67 g/m*3 0.2 C 0 km/h
79 09-03-2021 06:30:00 0.1 C 4.63 g/m*3 0.1 C 0 km/h
80 09-03-2021 06:35:00 0.1 C 4.63 g/m*3 0.1 C 0 km/h
81 09-03-2021 06:40:00 0.1 C 4.63 g/m*3 0.1 C 0 km/h
82 09-03-2021 06:45:00 0 C 4.6 g/m*3 0 C 0 km/h
83 09-03-2021 06:50:00 0 C 4.6 g/m*3 0 C 0 km/h
84 09-03-2021 06:55:00 0 C 4.6 g/m*3 0 C 0 km/h
85 09-03-2021 07:00:00 0 C 4.6 g/m*3 0 C 0 km/h
86 09-03-2021 07:05:00 0 C 4.6 g/m*3 0 C 0 km/h
87 09-03-2021 07:10:00 0 C 4.6 g/m*3 0 C 0 km/h
88 09-03-2021 07:15:00 0 C 4.6 g/m*3 0 C 0 km/h
89 09-03-2021 07:20:00 -0.1 C 4.57 g/m*3 -0.1 C 0 km/h
90 09-03-2021 07:25:00 -0.1 C 4.57 g/m*3 -0.1 C 0 km/h
91 09-03-2021 07:30:00 -0.1 C 4.57 g/m*3 -0.1 C 0 km/h
92 09-03-2021 07:35:00 -0.1 C 4.57 g/m*3 -0.1 C 0 km/h
93 09-03-2021 07:40:00 -0.1 C 4.57 g/m*3 -0.1 C 0 km/h
94 09-03-2021 07:45:00 -0.1 C 4.57 g/m*3 -0.1 C 0 km/h
95 09-03-2021 07:50:00 -0.1 C 4.57 g/m*3 -0.1 C 0 km/h
96 09-03-2021 07:55:00 -0.1 C 4.57 g/m*3 -0.1 C 0 km/h
97 09-03-2021 08:00:00 -0.1 C 4.57 g/m*3 -0.1 C 0 km/h
98 09-03-2021 08:05:00 -0.1 C 4.57 g/m*3 -0.1 C 0 km/h
99 09-03-2021 08:10:00 0 C 4.6 g/m*3 0 C 0 km/h
100 09-03-2021 08:15:00 0.1 C 4.63 g/m*3 0.1 C 0 km/h
Sensor: Nr:Datum:Temp:Abs-Feuchte:Windchill:Wind:
Aussen-T/F 101 09-03-2021 08:20:00 0.2 C 4.67 g/m*3 0.2 C 0 km/h
102 09-03-2021 08:25:00 0.3 C 4.75 g/m*3 0.3 C 0 km/h
103 09-03-2021 08:30:00 0.4 C 4.78 g/m*3 0.4 C 1.6 km/h
104 09-03-2021 08:35:00 0.6 C 4.85 g/m*3 0.6 C 0 km/h
105 09-03-2021 08:40:00 0.7 C 4.88 g/m*3 0.7 C 0 km/h
106 09-03-2021 08:45:00 0.8 C 4.91 g/m*3 0.8 C 0 km/h
107 09-03-2021 08:50:00 0.9 C 4.95 g/m*3 0.9 C 3.2 km/h
108 09-03-2021 08:55:00 1.2 C 5.05 g/m*3 1.2 C 4.8 km/h
109 09-03-2021 09:00:00 1.3 C 5.09 g/m*3 1.3 C 4.8 km/h
110 09-03-2021 09:05:00 1.4 C 5.12 g/m*3 1.4 C 4.8 km/h
111 09-03-2021 09:10:00 1.5 C 5.16 g/m*3 1.5 C 3.2 km/h
112 09-03-2021 09:15:00 1.5 C 5.16 g/m*3 1.5 C 4.8 km/h
113 09-03-2021 09:20:00 1.6 C 5.14 g/m*3 1.6 C 3.2 km/h
114 09-03-2021 09:25:00 1.7 C 5.17 g/m*3 1.7 C 1.6 km/h
115 09-03-2021 09:30:00 1.8 C 5.21 g/m*3 1.8 C 4.8 km/h
116 09-03-2021 09:35:00 2 C 5.28 g/m*3 2 C 3.2 km/h
117 09-03-2021 09:40:00 2.2 C 5.35 g/m*3 2.2 C 1.6 km/h
118 09-03-2021 09:45:00 2.3 C 5.39 g/m*3 2.3 C 3.2 km/h
119 09-03-2021 09:50:00 2.6 C 5.44 g/m*3 2.6 C 4.8 km/h
120 09-03-2021 09:55:00 2.7 C 5.48 g/m*3 2.7 C 3.2 km/h
121 09-03-2021 10:00:00 2.9 C 5.55 g/m*3 2.9 C 4.8 km/h
122 09-03-2021 10:05:00 3.1 C 5.57 g/m*3 3.1 C 3.2 km/h
123 09-03-2021 10:10:00 3.2 C 5.54 g/m*3 3.2 C 4.8 km/h
124 09-03-2021 10:15:00 3.3 C 5.58 g/m*3 3.3 C 0 km/h
125 09-03-2021 10:20:00 3.5 C 5.66 g/m*3 3.5 C 3.2 km/h
Sensor: Nr:Datum:Temp:Abs-Feuchte:Windchill:Wind:
Aussen-T/F 126 09-03-2021 10:25:00 3.7 C 5.67 g/m*3 3.7 C 4.8 km/h
127 09-03-2021 10:30:00 3.9 C 5.68 g/m*3 2.32 C 6.4 km/h
128 09-03-2021 10:35:00 4.1 C 5.76 g/m*3 4.1 C 4.8 km/h
129 09-03-2021 10:40:00 4.3 C 5.77 g/m*3 4.3 C 4.8 km/h
130 09-03-2021 10:45:00 4.6 C 5.82 g/m*3 3.13 C 6.4 km/h
131 09-03-2021 10:50:00 4.8 C 5.83 g/m*3 3.36 C 6.4 km/h
132 09-03-2021 10:55:00 5 C 5.78 g/m*3 2.72 C 9.7 km/h
133 09-03-2021 11:00:00 5.2 C 5.78 g/m*3 3.34 C 8.1 km/h
134 09-03-2021 11:05:00 5.3 C 5.75 g/m*3 3.08 C 9.7 km/h
135 09-03-2021 11:10:00 5.4 C 5.65 g/m*3 2.32 C 14.5 km/h
136 09-03-2021 11:15:00 5.6 C 5.66 g/m*3 2.57 C 14.5 km/h
137 09-03-2021 11:20:00 5.6 C 5.73 g/m*3 3.11 C 11.3 km/h
138 09-03-2021 11:25:00 5.6 C 5.66 g/m*3 2.83 C 12.9 km/h
139 09-03-2021 11:30:00 5.7 C 5.62 g/m*3 2.95 C 12.9 km/h
140 09-03-2021 11:35:00 5.7 C 5.62 g/m*3 3.56 C 9.7 km/h
141 09-03-2021 11:40:00 5.7 C 5.69 g/m*3 3.56 C 9.7 km/h
142 09-03-2021 11:45:00 5.7 C 5.69 g/m*3 4.4 C 6.4 km/h
143 09-03-2021 11:50:00 5.7 C 5.69 g/m*3 3.93 C 8.1 km/h
144 09-03-2021 11:55:00 5.7 C 5.69 g/m*3 2.95 C 12.9 km/h
145 09-03-2021 12:00:00 5.7 C 5.76 g/m*3 3.93 C 8.1 km/h
146 09-03-2021 12:05:00 5.7 C 5.76 g/m*3 3.23 C 11.3 km/h
147 09-03-2021 12:10:00 5.7 C 5.76 g/m*3 3.56 C 9.7 km/h
148 09-03-2021 12:15:00 5.7 C 5.76 g/m*3 3.56 C 9.7 km/h
149 09-03-2021 12:20:00 5.7 C 5.69 g/m*3 2.03 C 19.3 km/h
150 09-03-2021 12:25:00 5.8 C 5.8 g/m*3 3.36 C 11.3 km/h
Sensor: Nr:Datum:Temp:Abs-Feuchte:Windchill:Wind:
Aussen-T/F 151 09-03-2021 12:30:00 5.8 C 5.87 g/m*3 4.52 C 6.4 km/h
152 09-03-2021 12:35:00 5.8 C 5.87 g/m*3 3.68 C 9.7 km/h
153 09-03-2021 12:40:00 5.7 C 5.91 g/m*3 2.95 C 12.9 km/h
154 09-03-2021 12:45:00 5.6 C 5.94 g/m*3 2.83 C 12.9 km/h
155 09-03-2021 12:50:00 5.6 C 6.01 g/m*3 3.44 C 9.7 km/h
156 09-03-2021 12:55:00 5.5 C 6.04 g/m*3 2.99 C 11.3 km/h
157 09-03-2021 13:00:00 5.5 C 6.04 g/m*3 3.32 C 9.7 km/h
158 09-03-2021 13:05:00 5.4 C 6 g/m*3 3.2 C 9.7 km/h
159 09-03-2021 13:10:00 5.4 C 6 g/m*3 3.2 C 9.7 km/h
160 09-03-2021 13:15:00 5.4 C 6.07 g/m*3 3.58 C 8.1 km/h
161 09-03-2021 13:20:00 5.4 C 6.07 g/m*3 3.2 C 9.7 km/h
162 09-03-2021 13:25:00 5.5 C 6.18 g/m*3 4.17 C 6.4 km/h
163 09-03-2021 13:30:00 5.6 C 6.22 g/m*3 3.44 C 9.7 km/h
164 09-03-2021 13:35:00 5.6 C 6.15 g/m*3 2.83 C 12.9 km/h
165 09-03-2021 13:40:00 5.5 C 6.11 g/m*3 3.32 C 9.7 km/h
166 09-03-2021 13:45:00 5.4 C 6.07 g/m*3 2.58 C 12.9 km/h
167 09-03-2021 13:50:00 5.3 C 6.03 g/m*3 3.08 C 9.7 km/h
168 09-03-2021 13:55:00 5.4 C 6.21 g/m*3 3.2 C 9.7 km/h
169 09-03-2021 14:00:00 5.4 C 6.21 g/m*3 3.2 C 9.7 km/h
170 09-03-2021 14:05:00 5.4 C 6.21 g/m*3 2.87 C 11.3 km/h
171 09-03-2021 14:10:00 5.4 C 6.21 g/m*3 3.2 C 9.7 km/h
172 09-03-2021 14:15:00 5.4 C 6.21 g/m*3 2.87 C 11.3 km/h
173 09-03-2021 14:20:00 5.3 C 6.17 g/m*3 3.46 C 8.1 km/h
174 09-03-2021 14:25:00 5.4 C 6.28 g/m*3 2.87 C 11.3 km/h
175 09-03-2021 14:30:00 5.4 C 6.28 g/m*3 3.58 C 8.1 km/h
Sensor: Nr:Datum:Temp:Abs-Feuchte:Windchill:Wind:
Aussen-T/F 176 09-03-2021 14:35:00 5.6 C 6.36 g/m*3 3.81 C 8.1 km/h
177 09-03-2021 14:40:00 5.6 C 6.36 g/m*3 3.11 C 11.3 km/h
178 09-03-2021 14:45:00 5.6 C 6.36 g/m*3 3.44 C 9.7 km/h
179 09-03-2021 14:50:00 5.7 C 6.4 g/m*3 3.56 C 9.7 km/h
180 09-03-2021 14:55:00 5.7 C 6.33 g/m*3 3.56 C 9.7 km/h
181 09-03-2021 15:00:00 5.6 C 6.29 g/m*3 3.81 C 8.1 km/h
182 09-03-2021 15:05:00 5.6 C 6.29 g/m*3 4.29 C 6.4 km/h
183 09-03-2021 15:10:00 5.5 C 6.25 g/m*3 2.99 C 11.3 km/h
184 09-03-2021 15:15:00 5.4 C 6.28 g/m*3 3.2 C 9.7 km/h
185 09-03-2021 15:20:00 5.3 C 6.24 g/m*3 3.08 C 9.7 km/h
186 09-03-2021 15:25:00 5.3 C 6.24 g/m*3 3.08 C 9.7 km/h
187 09-03-2021 15:30:00 5.3 C 6.24 g/m*3 3.08 C 9.7 km/h
188 09-03-2021 15:35:00 5.4 C 6.28 g/m*3 3.58 C 8.1 km/h
189 09-03-2021 15:40:00 5.3 C 6.24 g/m*3 3.94 C 6.4 km/h
190 09-03-2021 15:45:00 5.3 C 6.24 g/m*3 3.94 C 6.4 km/h
191 09-03-2021 15:50:00 5.3 C 6.24 g/m*3 3.46 C 8.1 km/h
192 09-03-2021 15:55:00 5.3 C 6.17 g/m*3 3.94 C 6.4 km/h
193 09-03-2021 16:00:00 5.3 C 6.17 g/m*3 3.46 C 8.1 km/h
194 09-03-2021 16:05:00 5.3 C 6.17 g/m*3 2.75 C 11.3 km/h
195 09-03-2021 16:10:00 5.3 C 6.17 g/m*3 3.46 C 8.1 km/h
196 09-03-2021 16:15:00 5.3 C 6.17 g/m*3 5.3 C 4.8 km/h
197 09-03-2021 16:20:00 5.3 C 6.17 g/m*3 2.75 C 11.3 km/h
198 09-03-2021 16:25:00 5.3 C 6.17 g/m*3 2.75 C 11.3 km/h
199 09-03-2021 16:30:00 5.3 C 6.17 g/m*3 2.75 C 11.3 km/h
200 09-03-2021 16:35:00 5.4 C 6.21 g/m*3 4.06 C 6.4 km/h
Sensor: Nr:Datum:Temp:Abs-Feuchte:Windchill:Wind:
Aussen-T/F 201 09-03-2021 16:40:00 5.4 C 6.21 g/m*3 5.4 C 4.8 km/h
202 09-03-2021 16:45:00 5.4 C 6.21 g/m*3 4.06 C 6.4 km/h
203 09-03-2021 16:50:00 5.5 C 6.25 g/m*3 4.17 C 6.4 km/h
204 09-03-2021 16:55:00 5.6 C 6.29 g/m*3 5.6 C 3.2 km/h
205 09-03-2021 17:00:00 5.6 C 6.29 g/m*3 4.29 C 6.4 km/h
206 09-03-2021 17:05:00 5.6 C 6.29 g/m*3 4.29 C 6.4 km/h
207 09-03-2021 17:10:00 5.6 C 6.29 g/m*3 5.6 C 3.2 km/h
208 09-03-2021 17:15:00 5.6 C 6.29 g/m*3 5.6 C 4.8 km/h
209 09-03-2021 17:20:00 5.6 C 6.29 g/m*3 5.6 C 3.2 km/h
210 09-03-2021 17:25:00 5.6 C 6.29 g/m*3 5.6 C 3.2 km/h
211 09-03-2021 17:30:00 5.6 C 6.36 g/m*3 5.6 C 0 km/h
212 09-03-2021 17:35:00 5.6 C 6.36 g/m*3 5.6 C 3.2 km/h
213 09-03-2021 17:40:00 5.5 C 6.32 g/m*3 5.5 C 0 km/h
214 09-03-2021 17:45:00 5.4 C 6.35 g/m*3 5.4 C 4.8 km/h
215 09-03-2021 17:50:00 5.4 C 6.35 g/m*3 5.4 C 1.6 km/h
216 09-03-2021 17:55:00 5.3 C 6.31 g/m*3 5.3 C 1.6 km/h
217 09-03-2021 18:00:00 5.3 C 6.31 g/m*3 5.3 C 0 km/h
218 09-03-2021 18:05:00 5.3 C 6.31 g/m*3 5.3 C 0 km/h
219 09-03-2021 18:10:00 5.2 C 6.33 g/m*3 5.2 C 0 km/h
220 09-03-2021 18:15:00 5.2 C 6.33 g/m*3 5.2 C 0 km/h
221 09-03-2021 18:20:00 5.2 C 6.33 g/m*3 5.2 C 0 km/h
222 09-03-2021 18:25:00 5.1 C 6.29 g/m*3 5.1 C 0 km/h
223 09-03-2021 18:30:00 5.1 C 6.29 g/m*3 5.1 C 1.6 km/h
224 09-03-2021 18:35:00 5.1 C 6.29 g/m*3 5.1 C 1.6 km/h
225 09-03-2021 18:40:00 5 C 6.32 g/m*3 5 C 1.6 km/h
Sensor: Nr:Datum:Temp:Abs-Feuchte:Windchill:Wind:
Aussen-T/F 226 09-03-2021 18:45:00 5 C 6.32 g/m*3 3.59 C 6.4 km/h
227 09-03-2021 18:50:00 5 C 6.32 g/m*3 5 C 4.8 km/h
228 09-03-2021 18:55:00 5 C 6.32 g/m*3 5 C 3.2 km/h
229 09-03-2021 19:00:00 5 C 6.32 g/m*3 5 C 1.6 km/h
230 09-03-2021 19:05:00 5 C 6.32 g/m*3 3.59 C 6.4 km/h
231 09-03-2021 19:10:00 5 C 6.39 g/m*3 5 C 3.2 km/h
232 09-03-2021 19:15:00 4.9 C 6.35 g/m*3 4.9 C 1.6 km/h
233 09-03-2021 19:20:00 4.9 C 6.35 g/m*3 4.9 C 1.6 km/h
234 09-03-2021 19:25:00 4.9 C 6.35 g/m*3 4.9 C 0 km/h
235 09-03-2021 19:30:00 4.9 C 6.35 g/m*3 4.9 C 0 km/h
236 09-03-2021 19:35:00 4.9 C 6.35 g/m*3 4.9 C 0 km/h
237 09-03-2021 19:40:00 4.9 C 6.35 g/m*3 4.9 C 0 km/h
238 09-03-2021 19:45:00 4.9 C 6.35 g/m*3 4.9 C 0 km/h
239 09-03-2021 19:50:00 4.8 C 6.3 g/m*3 4.8 C 0 km/h
240 09-03-2021 19:55:00 4.8 C 6.3 g/m*3 4.8 C 0 km/h
241 09-03-2021 20:00:00 4.8 C 6.3 g/m*3 4.8 C 3.2 km/h
242 09-03-2021 20:05:00 4.8 C 6.3 g/m*3 4.8 C 0 km/h
243 09-03-2021 20:10:00 4.8 C 6.3 g/m*3 4.8 C 0 km/h
244 09-03-2021 20:15:00 4.8 C 6.3 g/m*3 4.8 C 0 km/h
245 09-03-2021 20:20:00 4.7 C 6.26 g/m*3 4.7 C 0 km/h
246 09-03-2021 20:25:00 4.7 C 6.26 g/m*3 4.7 C 0 km/h
247 09-03-2021 20:30:00 4.7 C 6.26 g/m*3 4.7 C 1.6 km/h
248 09-03-2021 20:35:00 4.7 C 6.26 g/m*3 4.7 C 1.6 km/h
249 09-03-2021 20:40:00 4.7 C 6.33 g/m*3 4.7 C 1.6 km/h
250 09-03-2021 20:45:00 4.8 C 6.37 g/m*3 4.8 C 0 km/h
Sensor: Nr:Datum:Temp:Abs-Feuchte:Windchill:Wind:
Aussen-T/F 251 09-03-2021 20:50:00 4.7 C 6.26 g/m*3 4.7 C 0 km/h
252 09-03-2021 20:55:00 4.7 C 6.26 g/m*3 4.7 C 0 km/h
253 09-03-2021 21:00:00 4.7 C 6.33 g/m*3 4.7 C 3.2 km/h
254 09-03-2021 21:05:00 4.7 C 6.33 g/m*3 4.7 C 0 km/h
255 09-03-2021 21:10:00 4.7 C 6.33 g/m*3 4.7 C 0 km/h
256 09-03-2021 21:15:00 4.7 C 6.33 g/m*3 4.7 C 0 km/h
257 09-03-2021 21:20:00 4.7 C 6.33 g/m*3 4.7 C 0 km/h
258 09-03-2021 21:25:00 4.7 C 6.33 g/m*3 4.7 C 0 km/h
259 09-03-2021 21:30:00 4.7 C 6.33 g/m*3 4.7 C 1.6 km/h
260 09-03-2021 21:35:00 4.7 C 6.33 g/m*3 4.7 C 0 km/h
261 09-03-2021 21:40:00 4.7 C 6.33 g/m*3 4.7 C 3.2 km/h
262 09-03-2021 21:45:00 4.7 C 6.33 g/m*3 4.7 C 0 km/h
263 09-03-2021 21:50:00 4.7 C 6.33 g/m*3 4.7 C 0 km/h
264 09-03-2021 21:55:00 4.7 C 6.33 g/m*3 4.7 C 0 km/h
265 09-03-2021 22:00:00 4.7 C 6.33 g/m*3 4.7 C 0 km/h
266 09-03-2021 22:05:00 4.7 C 6.33 g/m*3 4.7 C 0 km/h
267 09-03-2021 22:10:00 4.6 C 6.29 g/m*3 4.6 C 0 km/h
268 09-03-2021 22:15:00 4.6 C 6.29 g/m*3 4.6 C 0 km/h
269 09-03-2021 22:20:00 4.5 C 6.24 g/m*3 4.5 C 1.6 km/h
270 09-03-2021 22:25:00 4.5 C 6.24 g/m*3 4.5 C 0 km/h
271 09-03-2021 22:30:00 4.4 C 6.2 g/m*3 4.4 C 1.6 km/h
272 09-03-2021 22:35:00 4.4 C 6.2 g/m*3 4.4 C 1.6 km/h
273 09-03-2021 22:40:00 4.4 C 6.2 g/m*3 4.4 C 1.6 km/h
274 09-03-2021 22:45:00 4.4 C 6.2 g/m*3 4.4 C 0 km/h
275 09-03-2021 22:50:00 4.4 C 6.2 g/m*3 4.4 C 0 km/h
Sensor: Nr:Datum:Temp:Abs-Feuchte:Windchill:Wind:
Aussen-T/F 276 09-03-2021 22:55:00 4.4 C 6.2 g/m*3 4.4 C 0 km/h
277 09-03-2021 23:00:00 4.4 C 6.2 g/m*3 4.4 C 1.6 km/h
278 09-03-2021 23:05:00 4.4 C 6.2 g/m*3 4.4 C 1.6 km/h
279 09-03-2021 23:10:00 4.4 C 6.2 g/m*3 4.4 C 1.6 km/h
280 09-03-2021 23:15:00 4.3 C 6.16 g/m*3 4.3 C 1.6 km/h
281 09-03-2021 23:20:00 4.3 C 6.16 g/m*3 4.3 C 3.2 km/h
282 09-03-2021 23:25:00 4.3 C 6.16 g/m*3 4.3 C 0 km/h
283 09-03-2021 23:30:00 4.3 C 6.16 g/m*3 4.3 C 0 km/h
284 09-03-2021 23:35:00 4.3 C 6.16 g/m*3 4.3 C 0 km/h
285 09-03-2021 23:40:00 4.3 C 6.16 g/m*3 4.3 C 1.6 km/h
286 09-03-2021 23:45:00 4.3 C 6.16 g/m*3 4.3 C 0 km/h
287 09-03-2021 23:50:00 4.3 C 6.16 g/m*3 4.3 C 3.2 km/h
288 09-03-2021 23:55:00 4.3 C 6.16 g/m*3 4.3 C 1.6 km/h

Legende:
   Min
   Max


Maximal/Minimal-Werte vom 14.04.2020 - 16.05.2020

Sensor Min Max Avg
Temp
(Aussen-T/F)
-0.1 °C
15-04-2020  06:55:00
26.2 °C
17-04-2020  18:05:00
11.98 °C

Die Daten stammen von einer Davis Vantage Pro 2 Wetter-Station und werden unter Linux mit der Software wview2wettercgi und aufbereitet. Alle Angaben erfolgen ohne Gewähr für ihre Vollständigkeit oder Richtigkeit.
Kontakt: Rainer Krienke krienke@uni-koblenz.de . Meine Webseiten an der Uni Koblenz oder privat.
Version: $Revision: 0.78 $